TimeCDT,TemperatureF,Dew PointF,Humidity,Sea Level PressureIn,VisibilityMPH,Wind Direction,Wind SpeedMPH,Gust SpeedMPH,PrecipitationIn,Events,Conditions,WindDirDegrees,DateUTC
12:15 AM,60.8,57.2,88,29.61,10.0,South,10.4,-,N/A,,Clear,190,2013-05-21 05:15:00
12:35 AM,60.8,57.2,88,29.61,10.0,South,10.4,-,N/A,,Clear,190,2013-05-21 05:35:00
12:55 AM,60.8,57.2,88,29.61,10.0,SSW,8.1,-,N/A,,Clear,200,2013-05-21 05:55:00
1:15 AM,60.8,59.0,94,29.61,10.0,SSW,8.1,-,N/A,,Clear,200,2013-05-21 06:15:00
1:35 AM,62.6,59.0,88,29.61,10.0,South,9.2,-,N/A,,Clear,190,2013-05-21 06:35:00
1:55 AM,62.6,60.8,94,29.61,10.0,South,8.1,-,N/A,,Clear,190,2013-05-21 06:55:00
2:15 AM,62.6,60.8,94,29.60,10.0,South,8.1,-,N/A,,Clear,190,2013-05-21 07:15:00
2:35 AM,62.6,60.8,94,29.59,10.0,South,8.1,-,N/A,,Clear,190,2013-05-21 07:35:00
2:55 AM,62.6,60.8,94,29.59,10.0,SSW,8.1,-,N/A,,Clear,200,2013-05-21 07:55:00
3:15 AM,62.6,59.0,88,29.59,10.0,South,8.1,-,N/A,,Clear,190,2013-05-21 08:15:00
3:35 AM,60.8,59.0,94,29.59,10.0,SSW,8.1,-,N/A,,Clear,210,2013-05-21 08:35:00
3:55 AM,62.6,59.0,88,29.59,10.0,SSW,9.2,-,N/A,,Partly Cloudy,210,2013-05-21 08:55:00
4:15 AM,62.6,57.2,82,29.59,10.0,SW,10.4,-,N/A,,Clear,220,2013-05-21 09:15:00
4:35 AM,60.8,55.4,82,29.60,10.0,SW,11.5,-,N/A,,Clear,220,2013-05-21 09:35:00
4:55 AM,60.8,55.4,82,29.61,10.0,SSW,10.4,-,N/A,,Clear,210,2013-05-21 09:55:00
5:15 AM,59.0,53.6,82,29.62,10.0,SW,10.4,-,N/A,,Clear,230,2013-05-21 10:15:00
5:35 AM,59.0,53.6,82,29.63,10.0,SW,11.5,17.3,N/A,,Clear,220,2013-05-21 10:35:00
5:55 AM,59.0,53.6,82,29.64,10.0,SW,10.4,-,N/A,,Clear,230,2013-05-21 10:55:00
6:15 AM,59.0,53.6,82,29.64,10.0,SW,10.4,-,N/A,,Clear,220,2013-05-21 11:15:00
6:35 AM,59.0,53.6,82,29.64,10.0,SW,10.4,-,N/A,,Partly Cloudy,220,2013-05-21 11:35:00
6:55 AM,59.0,53.6,82,29.65,10.0,SW,8.1,-,N/A,,Scattered Clouds,230,2013-05-21 11:55:00
7:15 AM,59.0,55.4,88,29.65,10.0,SW,9.2,16.1,N/A,,Mostly Cloudy,230,2013-05-21 12:15:00
7:35 AM,60.8,55.4,82,29.66,10.0,WSW,9.2,-,N/A,,Overcast,240,2013-05-21 12:35:00
7:55 AM,60.8,55.4,82,29.66,10.0,SW,12.7,-,N/A,,Mostly Cloudy,230,2013-05-21 12:55:00
8:15 AM,60.8,55.4,82,29.66,10.0,SW,10.4,-,N/A,,Overcast,230,2013-05-21 13:15:00
8:35 AM,62.6,57.2,82,29.66,10.0,SW,11.5,17.3,N/A,,Overcast,230,2013-05-21 13:35:00
8:55 AM,62.6,57.2,82,29.67,-9999.0,WSW,11.5,17.3,N/A,,Overcast,240,2013-05-21 13:55:00
9:15 AM,62.6,57.2,82,29.68,10.0,WSW,15.0,-,N/A,,Overcast,250,2013-05-21 14:15:00
9:35 AM,62.6,55.4,77,29.68,10.0,WSW,15.0,-,N/A,,Overcast,250,2013-05-21 14:35:00
9:55 AM,62.6,55.4,77,29.69,10.0,WSW,12.7,-,N/A,,Overcast,240,2013-05-21 14:55:00
10:15 AM,62.6,53.6,72,29.69,10.0,SW,12.7,23.0,N/A,,Overcast,230,2013-05-21 15:15:00
10:35 AM,64.4,53.6,68,29.68,10.0,SW,11.5,21.9,N/A,,Mostly Cloudy,230,2013-05-21 15:35:00
10:55 AM,66.2,53.6,64,29.68,10.0,WSW,16.1,-,N/A,,Mostly Cloudy,240,2013-05-21 15:55:00
11:15 AM,66.2,53.6,64,29.69,10.0,WSW,11.5,20.7,N/A,,Mostly Cloudy,240,2013-05-21 16:15:00
11:35 AM,68.0,53.6,60,29.67,10.0,SW,13.8,21.9,N/A,,Partly Cloudy,230,2013-05-21 16:35:00
11:55 AM,66.2,53.6,64,29.68,10.0,SW,12.7,21.9,N/A,,Mostly Cloudy,230,2013-05-21 16:55:00
12:15 PM,66.2,53.6,64,29.69,10.0,WSW,15.0,-,N/A,,Overcast,240,2013-05-21 17:15:00
12:35 PM,68.0,53.6,60,29.69,10.0,SW,13.8,21.9,N/A,,Mostly Cloudy,230,2013-05-21 17:35:00
12:55 PM,68.0,53.6,60,29.68,10.0,SW,12.7,24.2,N/A,,Mostly Cloudy,230,2013-05-21 17:55:00
1:15 PM,68.0,53.6,60,29.68,10.0,West,13.8,-,N/A,,Mostly Cloudy,260,2013-05-21 18:15:00
1:35 PM,69.8,53.6,56,29.67,10.0,SW,13.8,-,N/A,,Mostly Cloudy,230,2013-05-21 18:35:00
1:55 PM,69.8,53.6,56,29.67,10.0,WSW,13.8,23.0,N/A,,Mostly Cloudy,240,2013-05-21 18:55:00
2:15 PM,69.8,53.6,56,29.67,10.0,SW,19.6,26.5,N/A,,Scattered Clouds,230,2013-05-21 19:15:00
2:35 PM,69.8,51.8,53,29.67,10.0,SW,15.0,25.3,N/A,,Mostly Cloudy,230,2013-05-21 19:35:00
2:55 PM,71.6,51.8,50,29.67,10.0,WSW,20.7,27.6,N/A,,Overcast,250,2013-05-21 19:55:00
3:15 PM,69.8,51.8,53,29.67,10.0,WSW,13.8,23.0,N/A,,Overcast,240,2013-05-21 20:15:00
3:35 PM,69.8,51.8,53,29.67,-9999.0,WSW,18.4,-,N/A,,Overcast,240,2013-05-21 20:35:00
3:55 PM,69.8,51.8,53,29.67,10.0,WSW,15.0,21.9,N/A,,Mostly Cloudy,240,2013-05-21 20:55:00
4:15 PM,69.8,51.8,53,29.67,10.0,WSW,16.1,21.9,N/A,,Overcast,250,2013-05-21 21:15:00
4:35 PM,71.6,51.8,50,29.67,10.0,WSW,15.0,-,N/A,,Overcast,240,2013-05-21 21:35:00
4:55 PM,71.6,51.8,50,29.66,10.0,SW,12.7,-,N/A,,Mostly Cloudy,230,2013-05-21 21:55:00
5:15 PM,71.6,51.8,50,29.65,10.0,West,18.4,-,N/A,,Mostly Cloudy,260,2013-05-21 22:15:00
5:35 PM,69.8,50.0,49,29.66,10.0,SW,9.2,19.6,N/A,,Mostly Cloudy,230,2013-05-21 22:35:00
5:55 PM,69.8,51.8,53,29.66,10.0,WSW,10.4,17.3,N/A,,Mostly Cloudy,240,2013-05-21 22:55:00
6:15 PM,69.8,51.8,53,29.66,10.0,WSW,13.8,-,N/A,,Overcast,240,2013-05-21 23:15:00
6:35 PM,69.8,50.0,49,29.66,10.0,West,17.3,-,N/A,,Mostly Cloudy,270,2013-05-21 23:35:00
6:55 PM,69.8,50.0,49,29.66,10.0,West,17.3,24.2,N/A,,Mostly Cloudy,270,2013-05-21 23:55:00
7:15 PM,68.0,50.0,52,29.67,10.0,WSW,15.0,-,N/A,,Partly Cloudy,250,2013-05-22 00:15:00
7:35 PM,66.2,50.0,56,29.67,10.0,WSW,10.4,-,N/A,,Partly Cloudy,250,2013-05-22 00:35:00
7:55 PM,66.2,50.0,56,29.67,10.0,WSW,10.4,-,N/A,,Clear,250,2013-05-22 00:55:00
8:15 PM,64.4,50.0,59,29.68,10.0,West,6.9,-,N/A,,Clear,260,2013-05-22 01:15:00
8:35 PM,62.6,50.0,63,29.68,10.0,West,8.1,-,N/A,,Clear,270,2013-05-22 01:35:00
8:55 PM,62.6,48.2,59,29.68,10.0,West,8.1,-,N/A,,Clear,270,2013-05-22 01:55:00
9:15 PM,60.8,48.2,63,29.68,10.0,West,9.2,-,N/A,,Clear,280,2013-05-22 02:15:00
9:35 PM,59.0,48.2,67,29.68,10.0,West,5.8,-,N/A,,Clear,280,2013-05-22 02:35:00
9:55 PM,59.0,48.2,67,29.69,10.0,West,4.6,-,N/A,,Clear,280,2013-05-22 02:55:00
10:15 PM,59.0,48.2,67,29.70,10.0,West,4.6,-,N/A,,Clear,270,2013-05-22 03:15:00
10:35 PM,59.0,48.2,67,29.69,10.0,WSW,4.6,-,N/A,,Clear,250,2013-05-22 03:35:00
10:55 PM,57.2,48.2,72,29.68,10.0,WNW,4.6,-,N/A,,Clear,300,2013-05-22 03:55:00
11:15 PM,55.4,48.2,77,29.69,10.0,South,3.5,-,N/A,,Clear,190,2013-05-22 04:15:00
11:35 PM,55.4,50.0,82,29.69,10.0,SSW,5.8,-,N/A,,Partly Cloudy,200,2013-05-22 04:35:00
11:55 PM,57.2,48.2,72,29.68,10.0,SW,4.6,-,N/A,,Partly Cloudy,230,2013-05-22 04:55:00